When you browse on this site, cookies collect data to enhance your experience and personalize the content and advertising you see.
Visit our Privacy Policy to learn more. By continuing to use the site, you agree to this use of cookies and data.
  • In Deutschland
  • Länderverzeichnis
  • Für 7 Tage
  • Wassertemperatur
  • Wetterkarte
  • Widgets
  • user-avatar
    Anmelden

    Stündliche Wetter Kabul

    Heute, 22 September, Sonntag

    Zeit Temperatur Niederschläge Wind Luftdruck Luftfeuchtigkeit
    00:00 +16°C° 0 mm 0 m/S 609 mmHg 26%
    01:00 +15°C° 0 mm 0 m/S 609 mmHg 28%
    02:00 +14°C° 0 mm 0 m/S 609 mmHg 29%
    03:00 +14°C° 0 mm 0 m/S 609 mmHg 34%
    04:00 +13°C° 0 mm 0 m/S 608 mmHg 37%
    05:00 +13°C° 0 mm 0 m/S 608 mmHg 41%
    06:00 +15°C° 0 mm 0 m/S 610 mmHg 38%
    07:00 +17°C° 0 mm 0 m/S 611 mmHg 36%
    08:00 +20°C° 0 mm 0 m/S 612 mmHg 33%
    09:00 +23°C° 0 mm 1 m/S 613 mmHg 31%
    10:00 +25°C° 0 mm 1 m/S 613 mmHg 29%
    11:00 +26°C° 0 mm 2 m/S 613 mmHg 27%
    12:00 +27°C° 0 mm 2 m/S 613 mmHg 24%
    13:00 +29°C° 0 mm 2 m/S 613 mmHg 20%
    14:00 +30°C° 0 mm 2 m/S 613 mmHg 17%
    15:00 +30°C° 0 mm 2 m/S 613 mmHg 17%
    16:00 +30°C° 0 mm 2 m/S 613 mmHg 17%
    17:00 +30°C° 0 mm 2 m/S 613 mmHg 17%
    18:00 +27°C° 0 mm 2 m/S 613 mmHg 23%
    19:00 +25°C° 0 mm 1 m/S 612 mmHg 29%
    20:00 +22°C° 0 mm 1 m/S 612 mmHg 36%
    21:00 +22°C° 0 mm 1 m/S 612 mmHg 37%
    22:00 +21°C° 0 mm 1 m/S 612 mmHg 39%
    23:00 +20°C° 0 mm 1 m/S 612 mmHg 40%

    Morgen, 23 September, Montag

    Zeit Temperatur Niederschläge Wind Luftdruck Luftfeuchtigkeit
    00:00 +19°C° 0 mm 1 m/S 612 mmHg 38%
    01:00 +18°C° 0 mm 1 m/S 612 mmHg 36%
    02:00 +18°C° 0 mm 1 m/S 611 mmHg 34%
    03:00 +16°C° 0 mm 1 m/S 611 mmHg 31%
    04:00 +15°C° 0 mm 1 m/S 611 mmHg 27%
    05:00 +15°C° 0 mm 1 m/S 611 mmHg 24%
    06:00 +18°C° 0 mm 1 m/S 612 mmHg 21%
    07:00 +20°C° 0 mm 1 m/S 613 mmHg 17%
    08:00 +22°C° 0 mm 1 m/S 614 mmHg 14%
    09:00 +23°C° 0 mm 1 m/S 615 mmHg 12%
    10:00 +25°C° 0 mm 1 m/S 615 mmHg 11%
    11:00 +27°C° 0 mm 1 m/S 616 mmHg 9%
    12:00 +28°C° 0 mm 1 m/S 615 mmHg 8%
    13:00 +29°C° 0 mm 1 m/S 615 mmHg 7%
    14:00 +30°C° 0 mm 1 m/S 615 mmHg 6%
    15:00 +30°C° 0 mm 1 m/S 615 mmHg 6%
    16:00 +31°C° 0 mm 1 m/S 615 mmHg 6%
    17:00 +31°C° 0 mm 1 m/S 614 mmHg 6%
    18:00 +28°C° 0 mm 1 m/S 614 mmHg 9%
    19:00 +25°C° 0 mm 1 m/S 613 mmHg 12%
    20:00 +22°C° 0 mm 1 m/S 612 mmHg 14%
    21:00 +21°C° 0 mm 1 m/S 612 mmHg 17%
    22:00 +18°C° 0 mm 0 m/S 612 mmHg 20%
    23:00 +17°C° 0 mm 0 m/S 611 mmHg 22%

    übermorgen, 24 September, Dienstag

    Zeit Temperatur Niederschläge Wind Luftdruck Luftfeuchtigkeit
    00:00 +16°C° 0 mm 0 m/S 611 mmHg 24%
    01:00 +16°C° 0 mm 0 m/S 611 mmHg 25%
    02:00 +15°C° 0 mm 0 m/S 610 mmHg 26%
    03:00 +15°C° 0 mm 0 m/S 610 mmHg 29%
    04:00 +14°C° 0 mm 0 m/S 610 mmHg 32%
    05:00 +14°C° 0 mm 0 m/S 610 mmHg 35%
    06:00 +16°C° 0 mm 0 m/S 611 mmHg 32%
    07:00 +18°C° 0 mm 0 m/S 613 mmHg 30%
    08:00 +21°C° 0 mm 0 m/S 614 mmHg 27%
    09:00 +24°C° 0 mm 1 m/S 614 mmHg 27%
    10:00 +26°C° 0 mm 1 m/S 615 mmHg 26%
    11:00 +27°C° 0 mm 2 m/S 615 mmHg 26%
    12:00 +28°C° 0 mm 2 m/S 615 mmHg 23%
    13:00 +29°C° 0 mm 2 m/S 614 mmHg 20%
    14:00 +30°C° 0 mm 2 m/S 614 mmHg 17%
    15:00 +30°C° 0 mm 2 m/S 614 mmHg 18%
    16:00 +30°C° 0 mm 2 m/S 614 mmHg 19%
    17:00 +30°C° 0 mm 2 m/S 614 mmHg 19%
    18:00 +28°C° 0 mm 2 m/S 613 mmHg 27%
    19:00 +25°C° 0 mm 2 m/S 613 mmHg 36%
    20:00 +23°C° 0 mm 1 m/S 612 mmHg 44%
    21:00 +22°C° 0 mm 1 m/S 612 mmHg 46%
    22:00 +21°C° 0 mm 1 m/S 612 mmHg 48%
    23:00 +20°C° 0 mm 1 m/S 612 mmHg 50%

    25 September, Mittwoch

    Zeit Temperatur Niederschläge Wind Luftdruck Luftfeuchtigkeit
    00:00 +17°C° 0 mm 0 m/S 612 mmHg 51%
    01:00 +17°C° 0 mm 0 m/S 611 mmHg 52%
    02:00 +16°C° 0 mm 0 m/S 611 mmHg 53%
    03:00 +15°C° 0 mm 0 m/S 611 mmHg 55%
    04:00 +15°C° 0 mm 0 m/S 611 mmHg 57%
    05:00 +15°C° 0 mm 0 m/S 611 mmHg 58%
    06:00 +16°C° 0 mm 0 m/S 612 mmHg 51%
    07:00 +20°C° 0 mm 1 m/S 613 mmHg 45%
    08:00 +22°C° 0 mm 1 m/S 615 mmHg 38%
    09:00 +24°C° 0 mm 1 m/S 615 mmHg 37%
    10:00 +25°C° 0 mm 2 m/S 615 mmHg 36%
    11:00 +27°C° 0 mm 2 m/S 616 mmHg 35%
    12:00 +28°C° 0 mm 2 m/S 615 mmHg 31%
    13:00 +29°C° 0 mm 2 m/S 615 mmHg 28%
    14:00 +30°C° 0 mm 2 m/S 615 mmHg 24%
    15:00 +30°C° 0 mm 2 m/S 615 mmHg 25%
    16:00 +30°C° 0 mm 3 m/S 615 mmHg 25%
    17:00 +30°C° 0 mm 3 m/S 615 mmHg 25%
    18:00 +28°C° 0 mm 2 m/S 614 mmHg 33%
    19:00 +25°C° 0 mm 2 m/S 614 mmHg 42%
    20:00 +23°C° 0 mm 1 m/S 614 mmHg 50%
    21:00 +22°C° 0 mm 1 m/S 613 mmHg 53%
    22:00 +22°C° 0 mm 1 m/S 613 mmHg 56%
    23:00 +21°C° 0 mm 1 m/S 613 mmHg 59%

    26 September, Donnerstag

    Zeit Temperatur Niederschläge Wind Luftdruck Luftfeuchtigkeit
    00:00 +18°C° 0 mm 0 m/S 613 mmHg 62%
    01:00 +18°C° 0 mm 0 m/S 613 mmHg 64%
    02:00 +17°C° 0 mm 0 m/S 612 mmHg 66%
    03:00 +17°C° 0 mm 0 m/S 612 mmHg 68%
    04:00 +16°C° 0 mm 0 m/S 612 mmHg 69%
    05:00 +16°C° 0 mm 0 m/S 612 mmHg 70%
    06:00 +18°C° 0 mm 0 m/S 613 mmHg 64%
    07:00 +19°C° 0 mm 0 m/S 614 mmHg 57%
    08:00 +21°C° 0 mm 0 m/S 615 mmHg 51%
    09:00 +25°C° 0 mm 1 m/S 616 mmHg 46%
    10:00 +26°C° 0 mm 1 m/S 616 mmHg 42%
    11:00 +28°C° 0 mm 2 m/S 616 mmHg 38%
    12:00 +29°C° 0 mm 2 m/S 616 mmHg 33%
    13:00 +30°C° 0 mm 2 m/S 616 mmHg 28%
    14:00 +31°C° 0 mm 2 m/S 616 mmHg 23%
    15:00 +31°C° 0 mm 3 m/S 615 mmHg 23%
    16:00 +31°C° 0 mm 3 m/S 615 mmHg 23%
    17:00 +31°C° 0 mm 3 m/S 615 mmHg 24%
    18:00 +28°C° 0 mm 3 m/S 614 mmHg 32%
    19:00 +26°C° 0 mm 2 m/S 614 mmHg 41%
    20:00 +24°C° 0 mm 2 m/S 614 mmHg 49%
    21:00 +23°C° 0 mm 2 m/S 614 mmHg 52%
    22:00 +22°C° 0 mm 1 m/S 613 mmHg 54%
    23:00 +22°C° 0 mm 1 m/S 613 mmHg 57%

    27 September, Freitag

    Zeit Temperatur Niederschläge Wind Luftdruck Luftfeuchtigkeit
    00:00 +21°C° 0 mm 1 m/S 613 mmHg 59%
    01:00 +18°C° 0 mm 0 m/S 613 mmHg 61%
    02:00 +17°C° 0 mm 0 m/S 612 mmHg 62%
    03:00 +17°C° 0 mm 0 m/S 612 mmHg 63%
    04:00 +16°C° 0 mm 0 m/S 612 mmHg 64%
    05:00 +16°C° 0 mm 0 m/S 612 mmHg 65%
    06:00 +18°C° 0 mm 0 m/S 613 mmHg 59%
    07:00 +19°C° 0 mm 0 m/S 613 mmHg 52%
    08:00 +21°C° 0 mm 0 m/S 614 mmHg 46%
    09:00 +23°C° 0 mm 0 m/S 615 mmHg 39%
    10:00 +26°C° 0 mm 1 m/S 615 mmHg 32%
    11:00 +28°C° 0 mm 1 m/S 615 mmHg 25%
    12:00 +29°C° 0 mm 1 m/S 615 mmHg 20%
    13:00 +30°C° 0 mm 2 m/S 615 mmHg 16%
    14:00 +32°C° 0 mm 2 m/S 615 mmHg 11%
    15:00 +33°C° 0 mm 3 m/S 615 mmHg 10%
    16:00 +33°C° 0 mm 4 m/S 614 mmHg 9%
    17:00 +33°C° 0 mm 5 m/S 614 mmHg 8%
    18:00 +29°C° 0 mm 4 m/S 614 mmHg 11%
    19:00 +26°C° 0 mm 3 m/S 613 mmHg 13%
    20:00 +23°C° 0 mm 2 m/S 612 mmHg 16%
    21:00 +21°C° 0 mm 2 m/S 612 mmHg 17%
    22:00 +20°C° 0 mm 2 m/S 612 mmHg 18%
    23:00 +20°C° 0 mm 1 m/S 611 mmHg 19%
    Mehr zeigen